This is the latest recevied weather packets stored in our database for station/object WE8M. If no packets are shown the sender has not sent any weather packets the latest 10 day(s).
| Time | Temp. | Humidity | Pressure | Rain* | Wind** | Luminosity | Snow |
|---|---|---|---|---|---|---|---|
| 1777921881 | 20.56° C | 61% | 1009.8 hPa | 0 mm | - | - | - |
| 1777917640 | 19.44° C | 59% | 1009.4 hPa | 0 mm | - | - | - |
| 1777916125 | 19.44° C | 62% | 1009 hPa | 0 mm | - | - | - |
| 1777914609 | 18.89° C | 56% | 1009.7 hPa | 0 mm | - | - | - |
| 1777912788 | 18.89° C | 59% | 1009.9 hPa | 0 mm | - | - | - |
| 1777911877 | 19.44° C | 59% | 1010 hPa | 0 mm | - | - | - |
| 1777910967 | 17.78° C | 61% | 1010.1 hPa | 0 mm | - | - | - |
| 1777910665 | 17.78° C | 62% | 1010.1 hPa | 0 mm | - | - | - |
| 1777909150 | 17.22° C | 63% | 1010.1 hPa | 0 mm | - | - | - |
| 1777908848 | 17.22° C | 60% | 1010.1 hPa | 0 mm | - | - | - |
| 1777908544 | 17.22° C | 63% | 1010.2 hPa | 0 mm | - | - | - |
| 1777908241 | 17.78° C | 62% | 1010 hPa | 0 mm | - | - | - |
| 1777907938 | 16.67° C | 65% | 1010 hPa | 0 mm | - | - | - |
| 1777907633 | 16.67° C | 61% | 1010.3 hPa | 0 mm | - | - | - |
| 1777907328 | 16.67° C | 64% | 1010.2 hPa | 0 mm | - | - | - |
| 1777907025 | 17.22° C | 62% | 1010.4 hPa | 0 mm | - | - | - |
| 1777906723 | 17.22° C | 62% | 1010.5 hPa | 0 mm | - | - | - |
| 1777906419 | 16.67° C | 65% | 1010.4 hPa | 0 mm | - | - | - |
| 1777906116 | 16.11° C | 64% | 1010.6 hPa | 0 mm | - | - | - |
| 1777905812 | 16.11° C | 66% | 1010.5 hPa | 0 mm | - | - | - |
| 1777905510 | 16.11° C | 63% | 1010.6 hPa | 0 mm | - | - | - |
| 1777905206 | 15.56° C | 66% | 1010.4 hPa | 0 mm | - | - | - |
| 1777904904 | 15.56° C | 67% | 1010.7 hPa | 0 mm | - | - | - |
| 1777904601 | 15.56° C | 65% | 1010.4 hPa | 0 mm | - | - | - |
| 1777904298 | 15.56° C | 64% | 1010.6 hPa | 0 mm | - | - | - |
* Rain latest hour (hover to see other rain measurements)
** Current wind speed in m/s (hover to see current wind gust speed)